Change the Weather History Date:

Friday, January 3, 2014

  Actual Average Record
Temperature  
Mean Temperature 33 °F 22 °F  
Max Temperature 45 °F 33 °F 50 °F (1981)
Min Temperature 20 °F 10 °F -32 °F (1974)
Degree Days  
Heating Degree Days 32 43  
Month to date heating degree days 123 130  
Since 1 July heating degree days 3646 3803  
Cooling Degree Days 0 0  
Month to date cooling degree days 0 0  
Year to date cooling degree days 0 0  
Moisture  
Dew Point 19 °F    
Average Humidity 50    
Maximum Humidity 63    
Minimum Humidity 37    
Precipitation  
Precipitation T in 0.01 in 0.79 in (1949)
Month to date precipitation T 0.03  
Year to date precipitation T 0.03  
Sea Level Pressure  
Sea Level Pressure 29.74 in    
Wind  
Wind Speed 24 mph (West)    
Max Wind Speed 43 mph    
Max Gust Speed 53 mph    
Visibility 8 miles    
Events Fog , Snow    
T = Trace of Precipitation, MM = Missing Value Source: NWS Daily Summary

Daily Weather History Graph

Daily Weather History Graph

Search for Another Location

Airport or City:

Trip Planner

Search our weather history database for the weather conditions in past years. The results will help you decide how hot, cold, wet, or windy it might be!

Date:

Astronomy

Jan. 03, 2014 Rise Set
Actual Time 7:28 AM MST 4:46 PM MST
Civil Twilight 6:57 AM MST 5:17 PM MST
Nautical Twilight 6:23 AM MST 5:51 PM MST
Astronomical Twilight 5:49 AM MST 6:25 PM MST
Moon 8:54 AM MST (1/3) 8:00 PM MST (1/3)
Length of Visible Light 10h 19m
Length of Day
9h 17m
Waxing Crescent, 8% of the Moon is Illuminated
Jan 3
Waxing Crescent
Jan 7
First Quarter
Jan 15
Full
Jan 23
Last Quarter
Jan 30
New

Hourly Weather History & Observations

Time (MST) Temp. Windchill Dew Point Humidity Pressure Visibility Wind Dir Wind Speed Gust Speed Precip Events Conditions
12:53 AM 28.9 °F 16.5 °F 16.0 °F 58% 29.98 in 10.0 mi WSW 18.4 mph - N/A   Clear
1:53 AM 28.0 °F 19.3 °F 16.0 °F 61% 29.97 in 10.0 mi WSW 9.2 mph 18.4 mph N/A   Clear
2:53 AM 30.9 °F 18.7 °F 17.1 °F 57% 29.94 in 10.0 mi SW 19.6 mph - N/A   Clear
3:53 AM 28.9 °F 16.1 °F 16.0 °F 58% 29.90 in 10.0 mi SSW 19.6 mph - N/A   Clear
4:53 AM 33.1 °F 20.1 °F 17.1 °F 52% 29.83 in 10.0 mi SW 25.3 mph 36.8 mph N/A   Clear
5:53 AM 30.9 °F 16.2 °F 18.0 °F 59% 29.83 in 10.0 mi WSW 29.9 mph 38.0 mph N/A   Clear
6:53 AM 30.9 °F 15.5 °F 17.1 °F 57% 29.82 in 10.0 mi SW 33.4 mph 41.4 mph N/A   Clear
7:53 AM 30.9 °F 16.7 °F 16.0 °F 54% 29.85 in 10.0 mi SW 27.6 mph - N/A   Clear
8:53 AM 30.9 °F 19.4 °F 15.1 °F 52% 29.88 in 10.0 mi WSW 17.3 mph - N/A   Clear
9:53 AM 36.0 °F 22.0 °F 19.0 °F 50% 29.78 in 10.0 mi WSW 35.7 mph 42.6 mph N/A   Clear
10:53 AM 37.9 °F 27.3 °F 18.0 °F 45% 29.78 in 10.0 mi WSW 21.9 mph 32.2 mph N/A   Clear
11:53 AM 39.0 °F 27.2 °F 19.0 °F 45% 29.70 in 10.0 mi WSW 29.9 mph - N/A   Clear
12:53 PM 42.1 °F 34.5 °F 19.0 °F 40% 29.64 in 10.0 mi WSW 15.0 mph 31.1 mph N/A   Scattered Clouds
1:53 PM 44.1 °F 34.8 °F 19.0 °F 37% 29.63 in 10.0 mi West 25.3 mph - N/A   Mostly Cloudy
2:53 PM 42.1 °F 30.6 °F 19.9 °F 41% 29.53 in 10.0 mi West 34.5 mph 49.5 mph N/A   Scattered Clouds
3:53 PM 41.0 °F 30.9 °F 21.0 °F 45% 29.63 in 10.0 mi WSW 24.2 mph 38.0 mph N/A   Mostly Cloudy
4:53 PM 39.0 °F 35.7 °F 21.0 °F 49% 29.62 in 10.0 mi West 4.6 mph - N/A   Overcast
5:53 PM 37.0 °F 23.7 °F 21.0 °F 52% 29.62 in 10.0 mi West 34.5 mph 43.7 mph N/A   Mostly Cloudy
6:53 PM 35.1 °F 21.0 °F 19.9 °F 54% 29.62 in 10.0 mi West 34.5 mph 42.6 mph N/A   Partly Cloudy
7:53 PM 34.0 °F 19.9 °F 19.9 °F 56% 29.65 in 10.0 mi WNW 32.2 mph 40.3 mph N/A   Overcast
8:53 PM 33.1 °F 20.3 °F 18.0 °F 54% 29.67 in 10.0 mi WNW 24.2 mph 34.5 mph N/A   Mostly Cloudy
9:53 PM 32.0 °F 17.9 °F 18.0 °F 56% 29.65 in 10.0 mi WNW 28.8 mph 39.1 mph N/A   Overcast
10:45 PM 26.6 °F 11.4 °F 24.8 °F 93% 29.72 in 5.0 mi WNW 25.3 mph 35.7 mph 0.00 in Snow Light Snow
10:51 PM 26.6 °F 10.8 °F 24.8 °F 93% 29.71 in 2.5 mi WNW 27.6 mph 40.3 mph 0.00 in Snow Light Snow
10:53 PM 27.0 °F 12.2 °F 24.1 °F 89% 29.68 in 1.8 mi WNW 24.2 mph 40.3 mph 0.00 in Snow Light Snow
10:56 PM 26.6 °F 10.3 °F 24.8 °F 93% 29.71 in 0.5 mi WNW 29.9 mph 41.4 mph 0.00 in Fog , Snow Light Snow
11:20 PM 26.6 °F 12.4 °F 24.8 °F 93% 29.70 in 0.8 mi WNW 21.9 mph 29.9 mph 0.00 in Snow Light Snow
11:23 PM 26.6 °F 13.1 °F 21.2 °F 80% 29.70 in 2.0 mi NW 19.6 mph 28.8 mph 0.00 in Snow Light Snow
11:31 PM 23.0 °F 7.6 °F 19.4 °F 86% 29.69 in 4.0 mi North 21.9 mph 33.4 mph 0.00 in Snow Light Snow
11:43 PM 21.2 °F 6.0 °F 17.6 °F 86% 29.70 in 4.0 mi North 19.6 mph 26.5 mph 0.00 in   Overcast
11:53 PM 19.9 °F 6.2 °F 18.0 °F 92% 29.71 in 2.0 mi North 15.0 mph 24.2 mph 0.00 in Snow Light Snow